Time,TemperatureF,DewpointF,PressureIn,WindDirection,WindDirectionDegrees,WindSpeedMPH,WindSpeedGustMPH,Humidity,HourlyPrecipIn,Conditions,Clouds,dailyrainin,SoftwareType,DateUTC
2013-07-02 00:11:00,57.0,49.0,-100.00,SE,132,16.0,21.0,74,-99.99,,,-99.99,,2013-07-02 05:11:00,
2013-07-02 00:22:00,57.0,49.0,-100.00,SE,139,15.0,20.0,73,-99.99,,,-99.99,,2013-07-02 05:22:00,
2013-07-02 00:43:00,57.0,47.0,-100.00,SE,126,15.0,18.0,69,-99.99,,,-99.99,,2013-07-02 05:43:00,
2013-07-02 00:53:00,57.0,47.0,-100.00,SE,126,15.0,18.0,68,-99.99,,,-99.99,,2013-07-02 05:53:00,
2013-07-02 01:11:00,57.0,46.0,-100.00,SE,133,15.0,19.0,66,-99.99,,,-99.99,,2013-07-02 06:11:00,
2013-07-02 01:43:00,57.0,45.0,-100.00,SE,138,16.0,20.0,64,-99.99,,,-99.99,,2013-07-02 06:43:00,
2013-07-02 01:53:00,57.0,46.0,-100.00,SE,129,14.0,17.0,65,-99.99,,,-99.99,,2013-07-02 06:53:00,
2013-07-02 02:11:00,57.0,46.0,-100.00,SE,135,12.0,14.0,65,-99.99,,,-99.99,,2013-07-02 07:11:00,
2013-07-02 02:22:00,57.0,46.0,-100.00,SE,138,10.0,12.0,66,-99.99,,,-99.99,,2013-07-02 07:22:00,
2013-07-02 02:44:00,57.0,47.0,-100.00,SSE,148,10.0,12.0,70,-99.99,,,-99.99,,2013-07-02 07:44:00,
2013-07-02 03:22:00,57.0,47.0,-100.00,SE,135,8.0,9.0,70,-99.99,,,-99.99,,2013-07-02 08:22:00,
2013-07-02 03:44:00,55.0,48.0,-100.00,SSE,149,8.0,9.0,76,-99.99,,,-99.99,,2013-07-02 08:44:00,
2013-07-02 03:53:00,55.0,48.0,-100.00,SSE,153,7.0,8.0,75,-99.99,,,-99.99,,2013-07-02 08:53:00,
2013-07-02 04:11:00,55.0,48.0,-100.00,SE,144,7.0,8.0,75,-99.99,,,-99.99,,2013-07-02 09:11:00,
2013-07-02 04:22:00,55.0,48.0,-100.00,SE,145,8.0,9.0,76,-99.99,,,-99.99,,2013-07-02 09:22:00,
2013-07-02 05:11:00,57.0,46.0,-100.00,SE,137,14.0,17.0,66,-99.99,,,-99.99,,2013-07-02 10:11:00,
2013-07-02 05:22:00,57.0,46.0,-100.00,SE,139,14.0,18.0,66,-99.99,,,-99.99,,2013-07-02 10:22:00,
2013-07-02 05:43:00,57.0,46.0,-100.00,SE,136,13.0,16.0,66,-99.99,,,-99.99,,2013-07-02 10:43:00,
2013-07-02 05:52:00,57.0,46.0,-100.00,SE,138,13.0,15.0,66,-99.99,,,-99.99,,2013-07-02 10:52:00,
2013-07-02 06:22:00,57.0,46.0,-100.00,SE,137,14.0,18.0,67,-99.99,,,-99.99,,2013-07-02 11:22:00,
2013-07-02 06:33:00,55.0,45.0,-100.00,SE,140,11.0,14.0,67,-99.99,,,-99.99,,2013-07-02 11:33:00,
2013-07-02 06:52:00,55.0,45.0,-100.00,SE,145,9.0,18.0,68,-99.99,,,-99.99,,2013-07-02 11:52:00,
2013-07-02 07:11:00,55.0,45.0,-100.00,SE,145,9.0,11.0,69,-99.99,,,-99.99,,2013-07-02 12:11:00,
2013-07-02 07:23:00,55.0,45.0,-100.00,SE,140,10.0,12.0,69,-99.99,,,-99.99,,2013-07-02 12:23:00,
2013-07-02 07:43:00,55.0,45.0,-100.00,SE,145,8.0,11.0,68,-99.99,,,-99.99,,2013-07-02 12:43:00,
2013-07-02 08:11:00,57.0,46.0,-100.00,SE,128,9.0,12.0,67,-99.99,,,-99.99,,2013-07-02 13:11:00,
2013-07-02 09:11:00,59.0,47.0,-100.00,SE,146,10.0,13.0,64,-99.99,,,-99.99,,2013-07-02 14:11:00,
2013-07-02 09:43:00,61.0,48.0,-100.00,SSE,160,10.0,17.0,62,-99.99,,,-99.99,,2013-07-02 14:43:00,
2013-07-02 10:22:00,63.0,48.0,-100.00,SE,141,10.0,16.0,59,-99.99,,,-99.99,,2013-07-02 15:22:00,
2013-07-02 11:43:00,64.0,47.0,-100.00,SE,145,9.0,13.0,53,-99.99,,,-99.99,,2013-07-02 16:43:00,
2013-07-02 12:11:00,68.0,48.0,-100.00,SSE,148,5.0,12.0,48,-99.99,,,-99.99,,2013-07-02 17:11:00,
2013-07-02 12:43:00,64.0,47.0,-100.00,SSE,153,8.0,14.0,53,-99.99,,,-99.99,,2013-07-02 17:43:00,
2013-07-02 13:12:00,66.0,48.0,-100.00,South,176,4.0,10.0,52,-99.99,,,-99.99,,2013-07-02 18:12:00,
2013-07-02 13:23:00,66.0,48.0,-100.00,SSE,153,7.0,12.0,52,-99.99,,,-99.99,,2013-07-02 18:23:00,
2013-07-02 13:43:00,66.0,48.0,-100.00,South,175,5.0,11.0,51,-99.99,,,-99.99,,2013-07-02 18:43:00,
2013-07-02 14:22:00,66.0,48.0,-100.00,SSE,161,6.0,10.0,52,-99.99,,,-99.99,,2013-07-02 19:22:00,
2013-07-02 14:43:00,66.0,47.0,-100.00,SSW,193,5.0,9.0,50,-99.99,,,-99.99,,2013-07-02 19:43:00,
2013-07-02 14:53:00,66.0,47.0,-100.00,SE,132,6.0,10.0,50,-99.99,,,-99.99,,2013-07-02 19:53:00,
2013-07-02 15:11:00,68.0,48.0,-100.00,SE,135,4.0,9.0,48,-99.99,,,-99.99,,2013-07-02 20:11:00,
2013-07-02 15:22:00,68.0,46.0,-100.00,SE,127,6.0,11.0,46,-99.99,,,-99.99,,2013-07-02 20:22:00,
2013-07-02 15:43:00,70.0,46.0,-100.00,East,85,3.0,11.0,43,-99.99,,,-99.99,,2013-07-02 20:43:00,
2013-07-02 16:44:00,70.0,46.0,-100.00,ESE,121,9.0,16.0,43,-99.99,,,-99.99,,2013-07-02 21:44:00,
2013-07-02 17:22:00,70.0,46.0,-100.00,ESE,108,9.0,20.0,42,-99.99,,,-99.99,,2013-07-02 22:22:00,
2013-07-02 17:53:00,72.0,46.0,-100.00,ESE,113,7.0,17.0,40,-99.99,,,-99.99,,2013-07-02 22:53:00,
2013-07-02 18:11:00,70.0,46.0,-100.00,ESE,114,10.0,14.0,42,-99.99,,,-99.99,,2013-07-02 23:11:00,
2013-07-02 18:22:00,70.0,47.0,-100.00,ESE,121,10.0,17.0,44,-99.99,,,-99.99,,2013-07-02 23:22:00,
2013-07-02 18:44:00,70.0,47.0,-100.00,SE,136,11.0,16.0,44,-99.99,,,-99.99,,2013-07-02 23:44:00,
2013-07-02 18:52:00,70.0,46.0,-100.00,ESE,121,11.0,17.0,42,-99.99,,,-99.99,,2013-07-02 23:52:00,
2013-07-02 19:11:00,68.0,45.0,-100.00,ESE,118,8.0,13.0,43,-99.99,,,-99.99,,2013-07-03 00:11:00,
2013-07-02 19:22:00,70.0,46.0,-100.00,SSE,151,4.0,10.0,42,-99.99,,,-99.99,,2013-07-03 00:22:00,
2013-07-02 19:52:00,68.0,46.0,-100.00,ESE,121,9.0,18.0,46,-99.99,,,-99.99,,2013-07-03 00:52:00,
2013-07-02 20:11:00,66.0,47.0,-100.00,ESE,123,14.0,22.0,50,-99.99,,,-99.99,,2013-07-03 01:11:00,
2013-07-02 20:22:00,66.0,47.0,-100.00,SE,124,11.0,19.0,50,-99.99,,,-99.99,,2013-07-03 01:22:00,
2013-07-02 20:42:00,66.0,48.0,-100.00,ESE,122,13.0,18.0,52,-99.99,,,-99.99,,2013-07-03 01:42:00,
2013-07-02 21:13:00,64.0,47.0,-100.00,SE,129,13.0,17.0,54,-99.99,,,-99.99,,2013-07-03 02:13:00,
2013-07-02 21:25:00,64.0,47.0,-100.00,SE,126,12.0,16.0,54,-99.99,,,-99.99,,2013-07-03 02:25:00,
2013-07-02 21:54:00,64.0,48.0,-100.00,ESE,120,13.0,18.0,56,-99.99,,,-99.99,,2013-07-03 02:54:00,
2013-07-02 22:13:00,63.0,47.0,-100.00,ESE,119,12.0,16.0,57,-99.99,,,-99.99,,2013-07-03 03:13:00,
2013-07-02 22:25:00,63.0,47.0,-100.00,ESE,116,12.0,16.0,57,-99.99,,,-99.99,,2013-07-03 03:25:00,
2013-07-02 22:35:00,63.0,47.0,-100.00,ESE,116,15.0,18.0,57,-99.99,,,-99.99,,2013-07-03 03:35:00,
2013-07-02 22:46:00,63.0,47.0,-100.00,ESE,116,15.0,20.0,57,-99.99,,,-99.99,,2013-07-03 03:46:00,
2013-07-02 22:54:00,63.0,47.0,-100.00,ESE,116,13.0,18.0,56,-99.99,,,-99.99,,2013-07-03 03:54:00,
2013-07-02 23:11:00,63.0,47.0,-100.00,ESE,119,14.0,18.0,56,-99.99,,,-99.99,,2013-07-03 04:11:00,
2013-07-02 23:22:00,63.0,47.0,-100.00,ESE,119,12.0,16.0,56,-99.99,,,-99.99,,2013-07-03 04:22:00,
2013-07-02 23:33:00,63.0,47.0,-100.00,SE,136,12.0,16.0,56,-99.99,,,-99.99,,2013-07-03 04:33:00,
2013-07-02 23:43:00,61.0,45.0,-100.00,SE,133,11.0,15.0,56,-99.99,,,-99.99,,2013-07-03 04:43:00,
2013-07-02 23:52:00,61.0,45.0,-100.00,SE,132,12.0,16.0,55,-99.99,,,-99.99,,2013-07-03 04:52:00,